• In Kazakhstan
  • List of Countries
  • For 7 days
  • Water Temperature
  • Satellite Maps
  • Weather Map
  • News
  • Weather Widgets
  • user-avatar
    Login

    Hourly Weather Batina

    Today, 21 March, Thursday

    Time Temperature Precipitation Wind Pressure Humidity
    00:00 +1°C° 0.2 mm 4 mps 669 mmHg 88%
    01:00 +1°C° 0.6 mm 4 mps 668 mmHg 89%
    02:00 +1°C° 0.6 mm 4 mps 668 mmHg 89%
    03:00 0°C° 0.6 mm 5 mps 667 mmHg 90%
    04:00 +1°C° 1.3 mm 5 mps 667 mmHg 91%
    05:00 +1°C° 1.3 mm 6 mps 666 mmHg 92%
    06:00 +1°C° 1.3 mm 6 mps 666 mmHg 93%
    07:00 0°C° 1.2 mm 7 mps 666 mmHg 94%
    08:00 +1°C° 1.2 mm 8 mps 666 mmHg 94%
    09:00 +2°C° 1.2 mm 8 mps 666 mmHg 94%
    10:00 +2°C° 3.2 mm 8 mps 666 mmHg 94%
    11:00 +3°C° 3.2 mm 7 mps 666 mmHg 94%
    12:00 +4°C° 3.2 mm 6 mps 666 mmHg 95%
    13:00 +4°C° 2.2 mm 6 mps 666 mmHg 95%
    14:00 +4°C° 2.2 mm 6 mps 666 mmHg 95%
    15:00 +4°C° 2.2 mm 6 mps 666 mmHg 95%
    16:00 +4°C° 1 mm 6 mps 666 mmHg 95%
    17:00 +3°C° 1 mm 6 mps 666 mmHg 95%
    18:00 +3°C° 1 mm 6 mps 666 mmHg 96%
    19:00 +3°C° 0.4 mm 6 mps 667 mmHg 96%
    20:00 +3°C° 0.4 mm 6 mps 667 mmHg 96%
    21:00 +3°C° 0.4 mm 5 mps 668 mmHg 96%
    22:00 +3°C° 0.3 mm 5 mps 668 mmHg 96%
    23:00 +3°C° 0.3 mm 5 mps 668 mmHg 96%

    Tomorrow, 22 March, Friday

    Time Temperature Precipitation Wind Pressure Humidity
    00:00 +4°C° 0.3 mm 4 mps 668 mmHg 96%
    01:00 +4°C° 0.3 mm 4 mps 668 mmHg 96%
    02:00 +5°C° 0.3 mm 3 mps 668 mmHg 96%
    03:00 +5°C° 0.3 mm 3 mps 668 mmHg 97%
    04:00 +5°C° 0.3 mm 3 mps 668 mmHg 96%
    05:00 +5°C° 0.3 mm 3 mps 668 mmHg 96%
    06:00 +5°C° 0.3 mm 3 mps 669 mmHg 96%
    07:00 +5°C° 0.1 mm 4 mps 669 mmHg 91%
    08:00 +5°C° 0.1 mm 4 mps 670 mmHg 86%
    09:00 +6°C° 0.1 mm 4 mps 670 mmHg 81%
    10:00 +7°C° 0 mm 4 mps 670 mmHg 74%
    11:00 +7°C° 0 mm 4 mps 670 mmHg 67%
    12:00 +8°C° 0 mm 4 mps 671 mmHg 60%
    13:00 +10°C° 0 mm 4 mps 670 mmHg 59%
    14:00 +10°C° 0 mm 4 mps 670 mmHg 58%
    15:00 +10°C° 0 mm 4 mps 670 mmHg 57%
    16:00 +8°C° 0 mm 4 mps 670 mmHg 62%
    17:00 +8°C° 0 mm 3 mps 670 mmHg 67%
    18:00 +7°C° 0 mm 3 mps 671 mmHg 71%
    19:00 +7°C° 0 mm 3 mps 671 mmHg 75%
    20:00 +6°C° 0 mm 2 mps 671 mmHg 79%
    21:00 +6°C° 0 mm 2 mps 672 mmHg 83%
    22:00 +5°C° 0 mm 2 mps 672 mmHg 86%
    23:00 +6°C° 0 mm 1 mps 672 mmHg 89%

    Day after tomorrow, 23 March, Saturday

    Time Temperature Precipitation Wind Pressure Humidity
    00:00 +5°C° 0 mm 1 mps 672 mmHg 92%
    01:00 +5°C° 0 mm 1 mps 671 mmHg 92%
    02:00 +5°C° 0 mm 1 mps 671 mmHg 92%
    03:00 +5°C° 0 mm 1 mps 671 mmHg 92%
    04:00 +5°C° 0 mm 1 mps 671 mmHg 92%
    05:00 +4°C° 0 mm 1 mps 671 mmHg 92%
    06:00 +4°C° 0 mm 1 mps 671 mmHg 92%
    07:00 +6°C° 0 mm 1 mps 672 mmHg 85%
    08:00 +6°C° 0 mm 2 mps 672 mmHg 78%
    09:00 +7°C° 0 mm 2 mps 673 mmHg 70%
    10:00 +8°C° 0 mm 2 mps 673 mmHg 69%
    11:00 +9°C° 0 mm 3 mps 673 mmHg 67%
    12:00 +10°C° 0 mm 3 mps 673 mmHg 65%
    13:00 +10°C° 0 mm 3 mps 673 mmHg 65%
    14:00 +10°C° 0 mm 3 mps 673 mmHg 64%
    15:00 +11°C° 0 mm 3 mps 672 mmHg 64%
    16:00 +10°C° 0.2 mm 3 mps 672 mmHg 67%
    17:00 +10°C° 0.2 mm 2 mps 673 mmHg 70%
    18:00 +9°C° 0.2 mm 2 mps 673 mmHg 73%
    19:00 +9°C° 0.1 mm 2 mps 673 mmHg 77%
    20:00 +8°C° 0.1 mm 2 mps 673 mmHg 80%
    21:00 +9°C° 0.1 mm 1 mps 673 mmHg 83%
    22:00 +8°C° 0 mm 1 mps 673 mmHg 85%
    23:00 +8°C° 0 mm 1 mps 673 mmHg 86%

    24 March, Sunday

    Time Temperature Precipitation Wind Pressure Humidity
    00:00 +7°C° 0 mm 1 mps 673 mmHg 88%
    01:00 +7°C° 0 mm 1 mps 673 mmHg 88%
    02:00 +7°C° 0 mm 1 mps 673 mmHg 87%
    03:00 +8°C° 0 mm 1 mps 673 mmHg 87%
    04:00 +7°C° 0 mm 1 mps 673 mmHg 89%
    05:00 +6°C° 0 mm 0 mps 673 mmHg 90%
    06:00 +5°C° 0 mm 0 mps 673 mmHg 92%
    07:00 +8°C° 0 mm 1 mps 673 mmHg 83%
    08:00 +9°C° 0 mm 1 mps 674 mmHg 74%
    09:00 +11°C° 0 mm 1 mps 674 mmHg 65%
    10:00 +11°C° 0 mm 1 mps 674 mmHg 63%
    11:00 +12°C° 0 mm 1 mps 674 mmHg 61%
    12:00 +12°C° 0 mm 1 mps 673 mmHg 59%
    13:00 +13°C° 0 mm 1 mps 673 mmHg 58%
    14:00 +13°C° 0 mm 1 mps 673 mmHg 56%
    15:00 +13°C° 0 mm 1 mps 672 mmHg 55%
    16:00 +13°C° 0.1 mm 1 mps 672 mmHg 58%
    17:00 +12°C° 0.1 mm 2 mps 672 mmHg 61%
    18:00 +12°C° 0.1 mm 2 mps 672 mmHg 65%
    19:00 +10°C° 0 mm 2 mps 672 mmHg 68%
    20:00 +10°C° 0 mm 2 mps 672 mmHg 71%
    21:00 +9°C° 0 mm 2 mps 673 mmHg 73%
    22:00 +9°C° 0 mm 1 mps 672 mmHg 76%
    23:00 +9°C° 0 mm 1 mps 672 mmHg 80%

    25 March, Monday

    Time Temperature Precipitation Wind Pressure Humidity
    00:00 +8°C° 0 mm 1 mps 671 mmHg 83%
    01:00 +8°C° 0 mm 1 mps 671 mmHg 84%
    02:00 +7°C° 0 mm 1 mps 671 mmHg 85%
    03:00 +7°C° 0 mm 1 mps 671 mmHg 85%
    04:00 +7°C° 0 mm 1 mps 671 mmHg 86%
    05:00 +7°C° 0 mm 1 mps 671 mmHg 87%
    06:00 +6°C° 0 mm 1 mps 671 mmHg 87%
    07:00 +7°C° 0 mm 0 mps 671 mmHg 78%
    08:00 +9°C° 0 mm 0 mps 672 mmHg 70%
    09:00 +11°C° 0 mm 0 mps 672 mmHg 61%
    10:00 +12°C° 0 mm 0 mps 672 mmHg 56%
    11:00 +14°C° 0 mm 1 mps 672 mmHg 52%
    12:00 +15°C° 0 mm 1 mps 672 mmHg 47%
    13:00 +15°C° 0 mm 1 mps 672 mmHg 46%
    14:00 +15°C° 0 mm 1 mps 671 mmHg 44%
    15:00 +16°C° 0 mm 1 mps 671 mmHg 43%
    16:00 +15°C° 0 mm 1 mps 671 mmHg 46%
    17:00 +15°C° 0 mm 1 mps 671 mmHg 49%
    18:00 +14°C° 0 mm 1 mps 671 mmHg 52%
    19:00 +13°C° 0 mm 1 mps 671 mmHg 58%
    20:00 +12°C° 0 mm 1 mps 671 mmHg 64%
    21:00 +11°C° 0 mm 1 mps 671 mmHg 69%
    22:00 +11°C° 0 mm 1 mps 671 mmHg 72%
    23:00 +10°C° 0 mm 1 mps 670 mmHg 75%

    26 March, Tuesday

    Time Temperature Precipitation Wind Pressure Humidity
    00:00 +9°C° 0 mm 0 mps 670 mmHg 78%
    01:00 +9°C° 0 mm 1 mps 670 mmHg 79%
    02:00 +9°C° 0 mm 1 mps 670 mmHg 80%
    03:00 +9°C° 0 mm 1 mps 669 mmHg 80%
    04:00 +9°C° 0 mm 1 mps 669 mmHg 79%
    05:00 +9°C° 0 mm 1 mps 670 mmHg 78%
    06:00 +9°C° 0 mm 1 mps 670 mmHg 78%
    07:00 +11°C° 0 mm 1 mps 670 mmHg 69%
    08:00 +13°C° 0 mm 1 mps 671 mmHg 61%
    09:00 +14°C° 0 mm 1 mps 672 mmHg 52%
    10:00 +15°C° 0 mm 1 mps 672 mmHg 48%
    11:00 +16°C° 0 mm 1 mps 672 mmHg 45%
    12:00 +18°C° 0 mm 1 mps 672 mmHg 41%
    13:00 +19°C° 0 mm 1 mps 671 mmHg 40%
    14:00 +19°C° 0 mm 1 mps 671 mmHg 39%
    15:00 +19°C° 0 mm 1 mps 671 mmHg 38%
    16:00 +19°C° 0 mm 1 mps 671 mmHg 42%
    17:00 +18°C° 0 mm 1 mps 671 mmHg 47%
    18:00 +16°C° 0 mm 1 mps 671 mmHg 51%
    19:00 +15°C° 0 mm 1 mps 671 mmHg 57%
    20:00 +14°C° 0 mm 1 mps 671 mmHg 63%
    21:00 +13°C° 0 mm 1 mps 671 mmHg 69%
    22:00 +12°C° 0 mm 1 mps 671 mmHg 71%
    23:00 +11°C° 0 mm 0 mps 671 mmHg 73%
    Show more